Weather History for TGPY - June, 2014

Change the Weather History Date:

Sunday, June 8, 2014

  Actual Average Record
Temperature  
Mean Temperature 82 °F -  
Max Temperature 87 °F 84 °F 88 °F (2015)
Min Temperature 78 °F 76 °F 75 °F (1997)
Cooling Degree Days 18    
Growing Degree Days 32 (Base 50)    
Moisture  
Dew Point 76 °F    
Average Humidity 78    
Maximum Humidity 89    
Minimum Humidity 66    
Precipitation  
Precipitation 0.00 in - - ()
Sea Level Pressure  
Sea Level Pressure 29.92 in    
Wind  
Wind Speed 14 mph ()    
Max Wind Speed 22 mph    
Max Gust Speed 34 mph    
Visibility 6.8 miles    
Events      
Averages and records for this station are not official NWS values.
T = Trace of Precipitation, MM = Missing Value Source: Averaged Metar Reports

Daily Weather History Graph

Daily Weather History Graph

Search for Another Location

Airport or City:

Trip Planner

Search our weather history database for the weather conditions in past years. The results will help you decide how hot, cold, wet, or windy it might be!

Date:

Astronomy

Jun. 08, 2014 Rise Set
Actual Time 5:41 AM AST 6:30 PM AST
Civil Twilight 5:18 AM AST 6:53 PM AST
Nautical Twilight 4:51 AM AST 7:21 PM AST
Astronomical Twilight 4:23 AM AST 7:48 PM AST
Moon 2:24 PM AST (6/8) 1:46 AM AST (6/8)
Length of Visible Light 13h 35m
Length of Day
12h 48m
Waxing Gibbous, 77% of the Moon is Illuminated
Jun 8
Waxing Gibbous
Jun 13
Full
Jun 19
Last Quarter
Jun 27
New
Jul 5
First Quarter

Hourly Weather History & Observations

Time (AST) Temp. Heat Index Dew Point Humidity Pressure Visibility Wind Dir Wind Speed Gust Speed Precip Events Conditions
12:00 AM 80.6 °F 86.2 °F 75.2 °F 84% 29.92 in 6.2 mi East 17.3 mph - N/A   Scattered Clouds
1:00 AM 80.6 °F 86.2 °F 75.2 °F 84% 29.92 in 6.2 mi East 17.3 mph - N/A   Scattered Clouds
2:00 AM 81 °F - 76 °F 80% 29.90 in 10 mi ESE 13.8 mph - -   Widespread Dust
2:00 AM 80.6 °F 86.2 °F 75.2 °F 84% 29.89 in 6.2 mi ESE 13.8 mph - N/A   Scattered Clouds
3:00 AM 80.6 °F 86.2 °F 75.2 °F 84% 29.89 in 6.2 mi East 11.5 mph - N/A   Scattered Clouds
4:00 AM 78.8 °F - 75.2 °F 89% 29.86 in 6.2 mi East 9.2 mph - N/A   Scattered Clouds
5:00 AM 80 °F - 74 °F 79% 29.89 in 10 mi East 13.8 mph - -   Widespread Dust
5:00 AM 80.6 °F 86.2 °F 75.2 °F 84% 29.89 in 6.2 mi East 13.8 mph - N/A   Scattered Clouds
6:00 AM 80.6 °F 86.2 °F 75.2 °F 84% 29.92 in 5.0 mi East 9.2 mph - N/A   Scattered Clouds
7:00 AM 82.4 °F 89.5 °F 75.2 °F 79% 29.92 in 6.2 mi East 13.8 mph - N/A   Scattered Clouds
8:00 AM 84 °F - 75 °F 68% 29.94 in 6 mi East 16.1 mph - -   Widespread Dust
8:00 AM 84.2 °F 92.3 °F 75.2 °F 74% 29.92 in 6.2 mi East 16.1 mph - N/A   Scattered Clouds
9:00 AM 86.0 °F 95.1 °F 75.2 °F 70% 29.95 in 6.2 mi East 17.3 mph - N/A   Scattered Clouds
10:00 AM 86.0 °F 95.1 °F 75.2 °F 70% 29.95 in 6.2 mi East 19.6 mph - N/A   Scattered Clouds
11:00 AM 86 °F - 76 °F 66% 29.97 in 11 mi SE 19.6 mph - -   Widespread Dust
11:00 AM 86.0 °F 96.9 °F 77.0 °F 74% 29.95 in 6.2 mi SE 19.6 mph - N/A   Partly Cloudy
12:00 PM 86.0 °F 96.9 °F 77.0 °F 74% 29.95 in 6.2 mi ESE 18.4 mph - N/A   Partly Cloudy
1:00 PM 86.0 °F 95.1 °F 75.2 °F 70% 29.92 in 6.2 mi ESE 19.6 mph - N/A   Partly Cloudy
2:00 PM 85 °F - 76 °F 67% 29.91 in 9 mi East 19.6 mph - -   Widespread Dust
2:00 PM 86.0 °F 95.1 °F 75.2 °F 70% 29.89 in 6.2 mi East 19.6 mph - N/A   Partly Cloudy
3:00 PM 86.0 °F 95.1 °F 75.2 °F 70% 29.89 in 6.2 mi ESE 17.3 mph 34.5 mph N/A   Scattered Clouds
4:00 PM 84.2 °F 94.1 °F 77.0 °F 79% 29.89 in 6.2 mi ESE 21.9 mph - N/A   Partly Cloudy
5:00 PM 83 °F - 76 °F 74% 29.89 in 7 mi ESE 15.0 mph - -   Widespread Dust
5:00 PM 82.4 °F 89.5 °F 75.2 °F 79% 29.89 in 6.2 mi ESE 15.0 mph - N/A   Mostly Cloudy
6:00 PM 82.4 °F 89.5 °F 75.2 °F 79% 29.89 in 6.2 mi East 13.8 mph - N/A   Mostly Cloudy
7:00 PM 82.4 °F 89.5 °F 75.2 °F 79% 29.92 in 6.2 mi ESE 15.0 mph - N/A   Mostly Cloudy
8:00 PM 82 °F - 76 °F 79% 29.94 in 7 mi East 15.0 mph - -   Widespread Dust
8:00 PM 82.4 °F 90.9 °F 77.0 °F 84% 29.92 in 6.2 mi East 15.0 mph - N/A   Scattered Clouds
9:00 PM 82.4 °F 89.5 °F 75.2 °F 79% 29.95 in 6.2 mi East 16.1 mph - N/A   Partly Cloudy
10:00 PM 80.6 °F 86.2 °F 75.2 °F 84% 29.95 in 6.2 mi ESE 16.1 mph - N/A   Partly Cloudy
11:00 PM 81 °F - 76 °F 81% 29.97 in 10 mi ESE 17.3 mph - -   Widespread Dust
11:00 PM 80.6 °F 87.1 °F 77.0 °F 89% 29.98 in 6.2 mi ESE 17.3 mph - N/A   Partly Cloudy